Meteo pe oră la Bolshoe Bizyukino

Astăzi, 10 Mai, Luni

Timp Temperatura Precipitaţii Vânt Presiune Umiditate
00:00 +2°C° 0 mm 3 m/s 748 mmHg 84%
01:00 +2°C° 0 mm 3 m/s 748 mmHg 83%
02:00 +1°C° 0 mm 3 m/s 749 mmHg 83%
03:00 +1°C° 0 mm 3 m/s 749 mmHg 82%
04:00 +2°C° 0 mm 3 m/s 750 mmHg 82%
05:00 +2°C° 0 mm 3 m/s 750 mmHg 81%
06:00 +4°C° 0 mm 4 m/s 751 mmHg 72%
07:00 +6°C° 0 mm 5 m/s 751 mmHg 63%
08:00 +8°C° 0 mm 5 m/s 751 mmHg 55%
09:00 +8°C° 0 mm 6 m/s 751 mmHg 51%
10:00 +9°C° 0 mm 6 m/s 751 mmHg 47%
11:00 +10°C° 0 mm 6 m/s 751 mmHg 43%
12:00 +11°C° 0 mm 6 m/s 751 mmHg 44%
13:00 +11°C° 0 mm 6 m/s 751 mmHg 44%
14:00 +11°C° 0 mm 6 m/s 751 mmHg 45%
15:00 +11°C° 0 mm 6 m/s 751 mmHg 49%
16:00 +11°C° 0 mm 6 m/s 751 mmHg 53%
17:00 +10°C° 0 mm 5 m/s 751 mmHg 58%
18:00 +9°C° 0 mm 5 m/s 751 mmHg 63%
19:00 +7°C° 0 mm 4 m/s 751 mmHg 68%
20:00 +6°C° 0 mm 4 m/s 751 mmHg 73%
21:00 +5°C° 0 mm 4 m/s 751 mmHg 73%
22:00 +5°C° 0 mm 4 m/s 751 mmHg 73%
23:00 +5°C° 0 mm 4 m/s 751 mmHg 72%

Mâine, 11 Mai, Marţi

Timp Temperatura Precipitaţii Vânt Presiune Umiditate
00:00 +5°C° 0 mm 4 m/s 751 mmHg 75%
01:00 +4°C° 0 mm 4 m/s 751 mmHg 78%
02:00 +4°C° 0 mm 4 m/s 751 mmHg 81%
03:00 +3°C° 0 mm 5 m/s 751 mmHg 81%
04:00 +5°C° 0 mm 5 m/s 751 mmHg 82%
05:00 +5°C° 0 mm 5 m/s 751 mmHg 83%
06:00 +7°C° 0 mm 6 m/s 751 mmHg 80%
07:00 +9°C° 0 mm 6 m/s 751 mmHg 77%
08:00 +11°C° 0 mm 7 m/s 751 mmHg 74%
09:00 +12°C° 0 mm 7 m/s 751 mmHg 72%
10:00 +15°C° 0 mm 7 m/s 750 mmHg 70%
11:00 +16°C° 0 mm 7 m/s 750 mmHg 68%
12:00 +17°C° 0 mm 7 m/s 750 mmHg 67%
13:00 +18°C° 0 mm 7 m/s 750 mmHg 66%
14:00 +20°C° 0 mm 7 m/s 750 mmHg 64%
15:00 +19°C° 0.5 mm 6 m/s 750 mmHg 69%
16:00 +17°C° 0.5 mm 6 m/s 750 mmHg 74%
17:00 +17°C° 0.5 mm 5 m/s 750 mmHg 78%
18:00 +15°C° 0.3 mm 5 m/s 750 mmHg 84%
19:00 +13°C° 0.3 mm 4 m/s 751 mmHg 89%
20:00 +12°C° 0.3 mm 3 m/s 751 mmHg 95%
21:00 +11°C° 0 mm 3 m/s 751 mmHg 94%
22:00 +10°C° 0 mm 3 m/s 752 mmHg 94%
23:00 +9°C° 0 mm 2 m/s 752 mmHg 93%

Poimâine, 12 Mai, Miercuri

Timp Temperatura Precipitaţii Vânt Presiune Umiditate
00:00 +8°C° 0 mm 2 m/s 752 mmHg 92%
01:00 +8°C° 0 mm 2 m/s 752 mmHg 91%
02:00 +8°C° 0 mm 1 m/s 752 mmHg 90%
03:00 +8°C° 0 mm 1 m/s 752 mmHg 89%
04:00 +9°C° 0 mm 1 m/s 752 mmHg 88%
05:00 +9°C° 0 mm 1 m/s 752 mmHg 87%
06:00 +9°C° 0.5 mm 1 m/s 751 mmHg 89%
07:00 +9°C° 0.5 mm 1 m/s 751 mmHg 91%
08:00 +9°C° 0.5 mm 1 m/s 750 mmHg 93%
09:00 +8°C° 1.8 mm 2 m/s 750 mmHg 94%
10:00 +8°C° 1.8 mm 2 m/s 749 mmHg 95%
11:00 +8°C° 1.8 mm 3 m/s 748 mmHg 96%
12:00 +8°C° 0.6 mm 4 m/s 747 mmHg 96%
13:00 +9°C° 0.6 mm 5 m/s 746 mmHg 95%
14:00 +12°C° 0.6 mm 5 m/s 745 mmHg 95%
15:00 +10°C° 1.2 mm 5 m/s 746 mmHg 95%
16:00 +8°C° 1.2 mm 5 m/s 746 mmHg 94%
17:00 +7°C° 1.2 mm 5 m/s 746 mmHg 94%
18:00 +7°C° 0 mm 4 m/s 747 mmHg 95%
19:00 +6°C° 0 mm 4 m/s 747 mmHg 95%
20:00 +5°C° 0 mm 3 m/s 748 mmHg 95%
21:00 +5°C° 0 mm 3 m/s 748 mmHg 95%
22:00 +5°C° 0 mm 3 m/s 747 mmHg 95%
23:00 +5°C° 0 mm 3 m/s 747 mmHg 95%

13 Mai, Joi

Timp Temperatura Precipitaţii Vânt Presiune Umiditate
00:00 +5°C° 0 mm 4 m/s 747 mmHg 94%
01:00 +6°C° 0 mm 5 m/s 747 mmHg 93%
02:00 +7°C° 0 mm 6 m/s 746 mmHg 93%
03:00 +7°C° 0.1 mm 5 m/s 746 mmHg 93%
04:00 +7°C° 0.1 mm 5 m/s 746 mmHg 93%
05:00 +8°C° 0.1 mm 4 m/s 746 mmHg 93%
06:00 +8°C° 0.1 mm 4 m/s 746 mmHg 92%
07:00 +10°C° 0.1 mm 3 m/s 746 mmHg 92%
08:00 +11°C° 0.1 mm 3 m/s 746 mmHg 91%
09:00 +13°C° 0.1 mm 4 m/s 746 mmHg 83%
10:00 +15°C° 0.1 mm 4 m/s 746 mmHg 75%
11:00 +17°C° 0.1 mm 5 m/s 746 mmHg 67%
12:00 +17°C° 0.1 mm 5 m/s 746 mmHg 65%
13:00 +19°C° 0.1 mm 4 m/s 746 mmHg 64%
14:00 +19°C° 0.1 mm 4 m/s 746 mmHg 62%
15:00 +19°C° 0.1 mm 4 m/s 746 mmHg 65%
16:00 +19°C° 0.1 mm 3 m/s 746 mmHg 68%
17:00 +19°C° 0.1 mm 3 m/s 746 mmHg 71%
18:00 +17°C° 0 mm 3 m/s 746 mmHg 76%
19:00 +15°C° 0 mm 2 m/s 746 mmHg 82%
20:00 +14°C° 0 mm 2 m/s 746 mmHg 87%
21:00 +13°C° 0 mm 2 m/s 746 mmHg 88%
22:00 +13°C° 0 mm 2 m/s 746 mmHg 89%
23:00 +13°C° 0 mm 2 m/s 746 mmHg 89%

14 Mai, Vineri

Timp Temperatura Precipitaţii Vânt Presiune Umiditate
00:00 +13°C° 0 mm 2 m/s 746 mmHg 90%
01:00 +12°C° 0 mm 2 m/s 746 mmHg 91%
02:00 +11°C° 0 mm 3 m/s 746 mmHg 92%
03:00 +12°C° 0 mm 3 m/s 746 mmHg 93%
04:00 +12°C° 0 mm 3 m/s 745 mmHg 93%
05:00 +13°C° 0 mm 3 m/s 745 mmHg 94%
06:00 +14°C° 0 mm 4 m/s 745 mmHg 89%
07:00 +16°C° 0 mm 5 m/s 745 mmHg 85%
08:00 +19°C° 0 mm 5 m/s 745 mmHg 80%
09:00 +20°C° 0 mm 6 m/s 744 mmHg 75%
10:00 +21°C° 0 mm 6 m/s 744 mmHg 71%
11:00 +22°C° 0 mm 6 m/s 744 mmHg 66%
12:00 +23°C° 0 mm 6 m/s 744 mmHg 67%
13:00 +23°C° 0 mm 6 m/s 743 mmHg 68%
14:00 +24°C° 0 mm 6 m/s 743 mmHg 68%
15:00 +23°C° 0.1 mm 6 m/s 743 mmHg 70%
16:00 +23°C° 0.1 mm 6 m/s 742 mmHg 72%
17:00 +22°C° 0.1 mm 5 m/s 742 mmHg 75%
18:00 +21°C° 0.3 mm 5 m/s 742 mmHg 79%
19:00 +20°C° 0.3 mm 4 m/s 742 mmHg 83%
20:00 +19°C° 0.3 mm 4 m/s 742 mmHg 87%
21:00 +18°C° 0.7 mm 3 m/s 742 mmHg 89%
22:00 +18°C° 0.7 mm 3 m/s 742 mmHg 91%
23:00 +17°C° 0.7 mm 2 m/s 741 mmHg 93%

15 Mai, Sâmbătă

Timp Temperatura Precipitaţii Vânt Presiune Umiditate
00:00 +16°C° 0.7 mm 2 m/s 741 mmHg 94%
01:00 +16°C° 0.7 mm 2 m/s 741 mmHg 94%
02:00 +16°C° 0.7 mm 1 m/s 741 mmHg 95%
03:00 +16°C° 4 mm 1 m/s 741 mmHg 94%
04:00 +16°C° 4 mm 1 m/s 741 mmHg 93%
05:00 +15°C° 4 mm 1 m/s 741 mmHg 92%
06:00 +17°C° 0 mm 2 m/s 741 mmHg 86%
07:00 +18°C° 0 mm 2 m/s 741 mmHg 81%
08:00 +20°C° 0 mm 3 m/s 742 mmHg 76%
09:00 +21°C° 0 mm 3 m/s 742 mmHg 72%
10:00 +22°C° 0 mm 3 m/s 742 mmHg 68%
11:00 +24°C° 0 mm 3 m/s 742 mmHg 64%
12:00 +23°C° 0.9 mm 2 m/s 741 mmHg 69%
13:00 +21°C° 0.9 mm 2 m/s 741 mmHg 74%
14:00 +21°C° 0.9 mm 1 m/s 741 mmHg 79%
15:00 +20°C° 2.4 mm 2 m/s 741 mmHg 83%
16:00 +19°C° 2.4 mm 2 m/s 740 mmHg 88%
17:00 +18°C° 2.4 mm 3 m/s 740 mmHg 92%
18:00 +18°C° 1.6 mm 3 m/s 740 mmHg 93%
19:00 +17°C° 1.6 mm 2 m/s 739 mmHg 94%
20:00 +16°C° 1.6 mm 2 m/s 739 mmHg 96%
21:00 +15°C° 0 mm 2 m/s 739 mmHg 96%
22:00 +15°C° 0 mm 2 m/s 740 mmHg 96%
23:00 +14°C° 0 mm 1 m/s 740 mmHg 96%
Arată mai mult

Formular de consimțământ

Meteoprog și furnizorii noștri de servicii pot stoca și accesa date personale, precum cookies, identificatori de dispozitiv sau alte tehnologii similare pe dispozitivul dumneavoastră și procesa astfel de date pentru a personaliza conținutul și reclamele, dar și pentru a oferi caracteristici de social media și pentru a analiza traficul.

  • Stocarea și/sau accesarea informațiilor pe dispozitivul dumneavoastră

    Cookies, identificatori de dispozitiv sau alte informații pot fi stocate sau accesate pe dispozitiv în scopurile indicate mai sus.

  • Reclame și conținut personalizat, evaluarea reclamelor și a conținutului, informații despre audiențe și dezvoltarea produselor

    Reclamele și conținutul pot fi personalizate pe baza unui profil. Pot fi adăugate date suplimentare pentru a personaliza mai bine reclamele și conținutul. Performanța reclamelor și conținutului poate fi măsurată. Pot fi obținute informații despre utilizatorii care au văzut reclamele și conținutul. Aceste date pot fi utilizate pentru a dezvolta sau îmbunătăți experiența utilizatorilor, sistemele și software-ul.

Dând clic pe ‘Sunt de acord’, permiteți utilizarea cookie-urilor menționate, a identificatorilor de dispozitiv, balizelor web sau altor tehnologii similare. Setările pot fi modificate din browser-ul dispozitivului dumneavoastră.

În anumite scopuri, interesele legitime pot prima asupra consimțământului. Puteți citi mai multe informații în acest sens în Politica privind Confidențialitatea Datelor și Cookie.